Weather Roundup
Issued by NWS Chicago, IL

Home | Current Version | Previous Version | Text Only | Print | Product List | Glossary Off
Versions: 1 2 3 4 5 6 7 8 9 10 11 12 13 14 15 16 17 18 19 20 21 22 23 24 25 26 27 28 29 30 31 32 33 34 35 36 37 38 39 40 41 42 43 44 45 46 47 48 49 50

000
NZUS59 KLOT 311206
HRRLOT

CHICAGO AREA WEATHER ROUNDUP
NATIONAL WEATHER SERVICE CHICAGO/ROMEOVILLE IL
700 AM CDT FRI OCT 31 2014

NOTE: "FAIR" INDICATES FEW OR NO CLOUDS BELOW 12,000 FEET WITH NO
SIGNIFICANT WEATHER AND/OR OBSTRUCTIONS TO VISIBILITY.

* THESE STATIONS ARE NOT UNDER NWS QUALITY CONTROL. THEY ALSO MAY NOT
  REPORT WEATHER SUCH AS PRECIPITATION OR FOG.

ILZ005-006-012>014-019>023-311300-
NORTHEAST ILLINOIS

CITY           SKY/WX    TMP DP  RH WIND       PRES   REMARKS
OHARE          MOCLDY    36  26  67 NW23G29   30.08R
6HR MIN TEMP:  36; 6HR MAX TEMP:  47; 6HR PCP: TRACE;

MIDWAY         CLOUDY    40  29  64 NW23G30   30.07R
6HR MIN TEMP:  40; 6HR MAX TEMP:  49; 6HR PCP: TRACE;

AURORA         CLOUDY    37  25  61 N22G35    30.11R
6HR MIN TEMP:  37; 6HR MAX TEMP:  46; 6HR PCP: TRACE;

LANSING*       CLOUDY    40  32  72 NW20G29   30.05R
JOLIET*        CLOUDY    37  26  63 N21G29    30.10R
WAUKEGAN       LGT SNOW  32  30  92 NW10G21   30.09R FOG     WCI  24
6HR MIN TEMP:  32; 6HR MAX TEMP:  45; 6HR PCP:  0.01;

DUPAGE AIRPORT MOCLDY    37  25  61 N18G36    30.10R
6HR MIN TEMP:  37; 6HR MAX TEMP:  47; 6HR PCP: TRACE;

WHEELING       MOCLDY    37  28  70 NW17G26   30.10R
6HR MIN TEMP:  37; 6HR MAX TEMP:  48; 6HR PCP: TRACE;

KANKAKEE*      CLOUDY    41  30  65 NW18G33   30.07R
MORRIS*        CLOUDY    38  28  67 NW17G25   30.10R
LEWIS AIRPORT* CLOUDY    37  26  62 N18G32    30.09R
NORTHERLY IS     N/A     40  30  68 NW13        N/A
$$

WIZ051-052-058>065-066-070>072-311300-
SOUTHEAST WISCONSIN

CITY           SKY/WX    TMP DP  RH WIND       PRES   REMARKS
MILWAUKEE      MOCLDY    35  31  85 NW17G24   30.09R WCI  25
6HR MIN TEMP:  33; 6HR MAX TEMP:  45; 6HR PCP:  0.02;

KENOSHA*       LGT SNOW  34  31  88 NW16G25   30.09S FOG     WCI  24
RACINE*        FLURRIES  35  31  85 N16G31    30.10R WCI  25
BURLINGTON     MIX PCPN  32  31  95 N17G24    30.12R WCI  21
WAUKESHA       CLOUDY    32  30  93 NW18      30.12R WCI  20
WEST BEND      CLOUDY    34  28  80 NW22G31   30.13R WCI  22
$$

INZ001>003-010>013-019-020-311300-
NORTHWEST INDIANA

CITY           SKY/WX    TMP DP  RH WIND       PRES   REMARKS
GARY*          CLOUDY    43  32  65 NW26      30.05R
MICHIGAN CITY* NOT AVBL
RENSSELAER*    NOT AVBL
VALPARAISO     LGT RAIN  40  35  83 N10G20    30.01S
$$

LMZ740>746-311300-
SOUTHERN LAKE MICHIGAN

STATION/POSITION TIME  SKY/WX   TEMP WIND        PRES    VSBY
                                AIR  DIR/SP/G
                 (UTC)          (F)  (DEG/KT/KT) (MB)    (MI)
HARRISON CRIB    1100            42  320/ 29/ 33   N/A
BURNHAM HARBOR   1200            39  310/ 11/ 17   N/A
CALUMET HARBOR   1200            40  310/ 10/ 19 1016.5R
BURNS HARBOR     NOT AVBL
MICHIGAN CITY    1200            43  310/ 32/ 36   N/A
$$

ABBREVIATIONS USED IN REMARKS
   TC - TEMPERATURE IN CELSIUS
  WCI - WIND CHILL INDEX
   HX - HEAT INDEX
  VSB - VISIBILITY
$$



USA.gov is the U.S. government's official web portal to all federal, state and local government web resources and services.